Location: Bytom
(50.3475°N, 18.9244°E)
Time: 02:55:47
(UTC+02:00)

Envisat - Visible Passes

Search period start: 21 October 2019 00:00
Search period end: 30 October 2019 23:00
Orbit: 764 x 766 km, 98.1° (Epoch: 20 October)

Date Brightness Start Highest point End Pass type
(mag) Time Alt. Az. Time Alt. Az. Time Alt. Az.
21 Oct 3.5 18:55:16 10° S 19:00:19 66° WSW 19:05:24 10° NNW visible
22 Oct 3.0 18:18:32 10° SSE 18:23:33 64° ENE 18:28:35 10° N visible
22 Oct 5.6 19:59:16 10° SW 20:03:02 21° W 20:06:48 10° NW visible
23 Oct 6.2 06:23:48 10° NE 06:26:53 16° E 06:29:56 10° SE visible
23 Oct 4.4 19:21:10 10° SSW 19:25:56 40° W 19:30:44 10° NNW visible
24 Oct 3.1 18:43:56 10° SSE 18:49:01 80° WSW 18:54:09 10° NNW visible
24 Oct 6.1 20:26:46 10° WSW 20:28:53 12° W 20:31:01 10° WNW visible
25 Oct 3.1 18:07:23 10° SE 18:12:19 53° ENE 18:17:15 10° N visible
25 Oct 5.3 19:47:29 10° SSW 19:51:39 25° W 19:55:49 10° NW visible
26 Oct 6.3 06:13:12 10° ENE 06:15:27 13° E 06:17:41 10° ESE visible
26 Oct 4.0 19:09:41 10° S 19:14:36 49° W 19:19:33 10° NNW visible
27 Oct 3.0 17:32:40 10° SSE 17:37:45 84° ENE 17:42:52 10° NNW visible
27 Oct 5.9 19:14:28 10° WSW 19:17:28 16° W 19:20:27 10° NW visible
28 Oct 5.9 05:37:29 10° NE 05:41:18 21° E 05:45:07 10° SE visible
28 Oct 3.3 16:56:19 10° SE 17:01:06 43° ENE 17:05:55 10° N visible
28 Oct 4.9 18:35:49 10° SSW 18:40:16 30° W 18:44:46 10° NNW visible
29 Oct 6.7 05:03:39 10° ENE 05:04:00 10° E 05:04:21 10° E visible
29 Oct 3.6 17:58:16 10° S 18:03:17 60° W 18:08:21 10° NNW visible
30 Oct 2.9 17:21:27 10° SSE 17:26:30 70° ENE 17:31:34 10° N visible
30 Oct 5.7 19:02:28 10° SW 19:06:02 19° W 19:09:38 10° NW visible
